Year,Month,Day,Hour,Minute,Value (Times are PST for temperature in C)
2012,04,18,09,02,6.60
2012,04,18,09,03,6.60
2012,04,18,09,04,6.60
2012,04,18,09,05,6.60
2012,04,18,09,06,6.60
2012,04,18,09,07,6.60
2012,04,18,09,08,6.60
2012,04,18,09,09,6.60
2012,04,18,09,10,6.60
2012,04,18,09,11,6.60
2012,04,18,09,12,6.60
2012,04,18,09,13,6.60
2012,04,18,09,14,6.60
2012,04,18,09,15,6.60
2012,04,18,09,16,6.60
2012,04,18,09,17,6.60
2012,04,18,09,18,6.60
2012,04,18,09,19,6.60
2012,04,18,09,20,6.70
2012,04,18,09,21,6.70
2012,04,18,09,22,6.70
2012,04,18,09,23,6.70
2012,04,18,09,24,6.70
2012,04,18,09,25,6.70
2012,04,18,09,26,6.80
2012,04,18,09,27,6.80
2012,04,18,09,28,6.80
2012,04,18,09,29,6.80
2012,04,18,09,30,6.80
2012,04,18,09,31,6.80
2012,04,18,09,32,6.80
2012,04,18,09,33,6.80
2012,04,18,09,34,6.80
2012,04,18,09,35,6.80
2012,04,18,09,36,6.80
2012,04,18,09,37,6.80
2012,04,18,09,38,6.80
2012,04,18,09,39,6.80
2012,04,18,09,40,6.80
2012,04,18,09,41,6.80
2012,04,18,09,42,6.90
2012,04,18,09,43,6.90
2012,04,18,09,44,6.90
2012,04,18,09,45,6.90
2012,04,18,09,46,6.90
2012,04,18,09,47,7.00
2012,04,18,09,48,6.90
2012,04,18,09,49,6.90
2012,04,18,09,50,6.90
2012,04,18,09,51,6.90
2012,04,18,09,52,6.90
2012,04,18,09,53,6.90
2012,04,18,09,54,6.90
2012,04,18,09,55,6.90
2012,04,18,09,56,6.90
2012,04,18,09,57,6.90
2012,04,18,09,58,6.90
2012,04,18,09,59,6.90
2012,04,18,10,00,6.90
2012,04,18,10,01,7.00
2012,04,18,10,02,6.90
2012,04,18,10,03,6.90
2012,04,18,10,04,6.90
2012,04,18,10,05,6.90
2012,04,18,10,06,6.90
2012,04,18,10,07,6.90
2012,04,18,10,08,6.90
2012,04,18,10,09,6.80
2012,04,18,10,10,6.80
2012,04,18,10,11,6.80
2012,04,18,10,12,6.80
2012,04,18,10,13,6.80
2012,04,18,10,14,6.80
2012,04,18,10,15,6.80
2012,04,18,10,16,6.80
2012,04,18,10,17,6.80
2012,04,18,10,18,6.80
2012,04,18,10,19,6.80
2012,04,18,10,20,6.80
2012,04,18,10,21,6.90
2012,04,18,10,22,6.90
2012,04,18,10,23,6.90
2012,04,18,10,24,6.90
2012,04,18,10,25,6.90
2012,04,18,10,26,6.90
2012,04,18,10,27,6.90
2012,04,18,10,28,6.90
2012,04,18,10,29,6.90
2012,04,18,10,30,6.90
2012,04,18,10,31,6.90
2012,04,18,10,32,6.90
2012,04,18,10,33,6.90
2012,04,18,10,34,6.90
2012,04,18,10,35,7.00
2012,04,18,10,36,7.00
2012,04,18,10,37,7.10
2012,04,18,10,38,7.10
2012,04,18,10,39,7.20
2012,04,18,10,40,7.20
2012,04,18,10,41,7.30
2012,04,18,10,42,7.40
2012,04,18,10,43,7.50
2012,04,18,10,44,7.60
2012,04,18,10,45,7.70
2012,04,18,10,46,7.70
2012,04,18,10,47,7.70
2012,04,18,10,48,7.70
2012,04,18,10,49,7.70
2012,04,18,10,50,7.70
2012,04,18,10,51,7.70
2012,04,18,10,52,7.80
2012,04,18,10,53,7.80
2012,04,18,10,54,7.80
2012,04,18,10,55,7.80
2012,04,18,10,56,7.80
2012,04,18,10,57,7.80
2012,04,18,10,58,7.80
2012,04,18,10,59,7.80
2012,04,18,11,00,7.80
2012,04,18,11,01,7.80
2012,04,18,11,02,7.80
2012,04,18,11,03,7.80
2012,04,18,11,04,7.90
2012,04,18,11,05,8.00
2012,04,18,11,06,8.10
2012,04,18,11,07,8.20
2012,04,18,11,08,8.10
2012,04,18,11,09,8.10
2012,04,18,11,10,8.10
2012,04,18,11,11,8.00
2012,04,18,11,12,8.00
2012,04,18,11,13,7.90
2012,04,18,11,14,7.90
2012,04,18,11,15,7.90
2012,04,18,11,16,7.90
2012,04,18,11,17,7.90
2012,04,18,11,18,7.90
2012,04,18,11,19,7.90
2012,04,18,11,20,7.80
2012,04,18,11,21,7.90
2012,04,18,11,22,7.90
2012,04,18,11,23,7.90
2012,04,18,11,24,8.00
2012,04,18,11,25,8.10
2012,04,18,11,26,8.10
2012,04,18,11,27,8.10
2012,04,18,11,28,8.10
2012,04,18,11,29,8.20
2012,04,18,11,30,8.20
2012,04,18,11,31,8.20
2012,04,18,11,32,8.20
2012,04,18,11,33,8.10
2012,04,18,11,34,8.10
2012,04,18,11,35,8.20
2012,04,18,11,36,8.20
2012,04,18,11,37,8.30
2012,04,18,11,38,8.40
2012,04,18,11,39,8.60
2012,04,18,11,40,8.70
2012,04,18,11,41,8.80
2012,04,18,11,42,9.00
2012,04,18,11,43,9.00
2012,04,18,11,44,9.10
2012,04,18,11,45,9.10
2012,04,18,11,46,9.10
2012,04,18,11,47,9.10
2012,04,18,11,48,9.10
2012,04,18,11,49,9.20
2012,04,18,11,50,9.20
2012,04,18,11,51,9.30
2012,04,18,11,52,9.30
2012,04,18,11,53,9.30
2012,04,18,11,54,9.20
2012,04,18,11,55,9.00
2012,04,18,11,56,8.90
2012,04,18,11,57,8.90
2012,04,18,11,58,8.80
2012,04,18,11,59,8.70
2012,04,18,12,00,8.70
2012,04,18,12,01,8.60
2012,04,18,12,02,8.70
2012,04,18,12,03,8.70
2012,04,18,12,04,8.70
2012,04,18,12,05,8.70
2012,04,18,12,06,8.70
2012,04,18,12,07,8.70
2012,04,18,12,08,8.80
2012,04,18,12,09,8.80
2012,04,18,12,10,9.00
2012,04,18,12,11,9.00
2012,04,18,12,12,9.00
2012,04,18,12,13,9.10
2012,04,18,12,14,9.20
2012,04,18,12,15,9.30
2012,04,18,12,16,9.30
2012,04,18,12,17,9.40
2012,04,18,12,18,9.50
2012,04,18,12,19,9.60
2012,04,18,12,20,9.70
2012,04,18,12,21,9.80
2012,04,18,12,22,9.90
2012,04,18,12,23,9.90
2012,04,18,12,24,9.90
2012,04,18,12,25,9.80
2012,04,18,12,26,9.70
2012,04,18,12,27,9.70
2012,04,18,12,28,9.70
2012,04,18,12,29,9.70
2012,04,18,12,30,9.70
2012,04,18,12,31,9.60
2012,04,18,12,32,9.60
2012,04,18,12,33,9.70
2012,04,18,12,34,9.70
2012,04,18,12,35,9.80
2012,04,18,12,36,9.90
2012,04,18,12,37,9.90
2012,04,18,12,38,10.00
2012,04,18,12,39,10.00
2012,04,18,12,40,10.10
2012,04,18,12,41,10.20
2012,04,18,12,42,10.20
2012,04,18,12,43,10.30
2012,04,18,12,44,10.30
2012,04,18,12,45,10.30
2012,04,18,12,46,10.30
2012,04,18,12,47,10.30
2012,04,18,12,48,10.30
2012,04,18,12,49,10.20
2012,04,18,12,50,10.10
2012,04,18,12,51,10.10
2012,04,18,12,52,10.00
2012,04,18,12,53,9.80
2012,04,18,12,54,9.70
2012,04,18,12,55,9.60
2012,04,18,12,56,9.40
2012,04,18,12,57,9.30
2012,04,18,12,58,9.30
2012,04,18,12,59,9.20
2012,04,18,13,00,9.20
2012,04,18,13,01,9.20
2012,04,18,13,02,9.20
2012,04,18,13,03,9.30
2012,04,18,13,04,9.40
2012,04,18,13,05,9.40
2012,04,18,13,06,9.40
2012,04,18,13,07,9.40
2012,04,18,13,08,9.40
2012,04,18,13,09,9.40
2012,04,18,13,10,9.50
2012,04,18,13,11,9.50
2012,04,18,13,12,9.50
2012,04,18,13,13,9.50
2012,04,18,13,14,9.60
2012,04,18,13,15,9.60
2012,04,18,13,16,9.60
2012,04,18,13,17,9.70
2012,04,18,13,18,9.70
2012,04,18,13,19,9.70
2012,04,18,13,20,9.80
2012,04,18,13,21,9.80
2012,04,18,13,22,9.80
2012,04,18,13,23,9.80
2012,04,18,13,24,9.80
2012,04,18,13,25,9.80
2012,04,18,13,26,9.70
2012,04,18,13,27,9.70
2012,04,18,13,28,9.60
2012,04,18,13,29,9.60
2012,04,18,13,30,9.50
2012,04,18,13,31,9.50
2012,04,18,13,32,9.50
2012,04,18,13,33,9.60
2012,04,18,13,34,9.60
2012,04,18,13,35,9.60
2012,04,18,13,36,9.60
2012,04,18,13,37,9.70
2012,04,18,13,38,9.70
2012,04,18,13,39,9.80
2012,04,18,13,40,9.90
2012,04,18,13,41,10.00
2012,04,18,13,42,10.10
2012,04,18,13,43,10.10
2012,04,18,13,44,10.10
2012,04,18,13,45,10.10
2012,04,18,13,46,10.20
2012,04,18,13,47,10.20
2012,04,18,13,48,10.20
2012,04,18,13,49,10.30
2012,04,18,13,50,10.30
2012,04,18,13,51,10.30
2012,04,18,13,52,10.20
2012,04,18,13,53,10.10
2012,04,18,13,54,10.00
2012,04,18,13,55,9.90
2012,04,18,13,56,9.90
2012,04,18,13,57,9.90
2012,04,18,13,58,9.90
2012,04,18,13,59,9.90
2012,04,18,14,00,10.00
2012,04,18,14,01,10.00
2012,04,18,14,02,9.90
2012,04,18,14,03,10.00
2012,04,18,14,04,10.00
2012,04,18,14,05,10.00
2012,04,18,14,06,9.90
2012,04,18,14,07,9.90
2012,04,18,14,08,9.90
2012,04,18,14,09,10.00
2012,04,18,14,10,10.00
2012,04,18,14,11,10.00
2012,04,18,14,12,9.90
2012,04,18,14,13,9.90
2012,04,18,14,14,9.80
2012,04,18,14,15,9.80
2012,04,18,14,16,9.80
2012,04,18,14,17,9.80
2012,04,18,14,18,9.70
2012,04,18,14,19,9.70
2012,04,18,14,20,9.60
2012,04,18,14,21,9.50
2012,04,18,14,22,9.40
2012,04,18,14,23,9.40
2012,04,18,14,24,9.30
2012,04,18,14,25,9.30
2012,04,18,14,26,9.40
2012,04,18,14,27,9.50
2012,04,18,14,28,9.60
2012,04,18,14,29,9.70
2012,04,18,14,30,9.80
2012,04,18,14,31,9.90
2012,04,18,14,32,10.00
2012,04,18,14,33,10.10
2012,04,18,14,34,10.10
2012,04,18,14,35,10.10
2012,04,18,14,36,10.20
2012,04,18,14,37,10.30
2012,04,18,14,38,10.30
2012,04,18,14,39,10.20
2012,04,18,14,40,10.20
2012,04,18,14,41,10.10
2012,04,18,14,42,10.10
2012,04,18,14,43,10.10
2012,04,18,14,44,10.20
2012,04,18,14,45,10.10
2012,04,18,14,46,10.10
2012,04,18,14,47,10.10
2012,04,18,14,48,10.20
2012,04,18,14,49,10.20
2012,04,18,14,50,10.20
2012,04,18,14,51,10.10
2012,04,18,14,52,10.00
2012,04,18,14,53,10.00
2012,04,18,14,54,10.00
2012,04,18,14,55,9.90
2012,04,18,14,56,9.90
2012,04,18,14,57,9.90
2012,04,18,14,58,9.90
2012,04,18,14,59,9.90
2012,04,18,15,00,9.90
2012,04,18,15,01,10.00
2012,04,18,15,02,10.00
2012,04,18,15,03,10.10
2012,04,18,15,04,10.10
2012,04,18,15,05,10.10
2012,04,18,15,06,10.10
2012,04,18,15,07,10.10
2012,04,18,15,08,10.00
2012,04,18,15,09,10.00
2012,04,18,15,10,9.90
2012,04,18,15,11,9.90
2012,04,18,15,12,9.90
2012,04,18,15,13,9.90
2012,04,18,15,14,9.90
2012,04,18,15,15,10.00
2012,04,18,15,16,10.00
2012,04,18,15,17,10.10
2012,04,18,15,18,10.10
2012,04,18,15,19,10.10
2012,04,18,15,20,10.10
2012,04,18,15,21,10.10
2012,04,18,15,22,10.10
2012,04,18,15,23,10.10
2012,04,18,15,24,10.00
2012,04,18,15,25,10.00
2012,04,18,15,26,9.90
2012,04,18,15,27,9.90
2012,04,18,15,28,9.90
2012,04,18,15,29,9.90
2012,04,18,15,30,9.90
2012,04,18,15,31,10.00
2012,04,18,15,32,10.10
2012,04,18,15,33,10.10
2012,04,18,15,34,10.10
2012,04,18,15,35,10.10
2012,04,18,15,36,10.10
2012,04,18,15,37,10.20
2012,04,18,15,38,10.30
2012,04,18,15,39,10.30
2012,04,18,15,40,10.30
2012,04,18,15,41,10.30
2012,04,18,15,42,10.20
2012,04,18,15,43,10.20
2012,04,18,15,44,10.20
2012,04,18,15,45,10.20
2012,04,18,15,46,10.30
2012,04,18,15,47,10.30
2012,04,18,15,48,10.30
2012,04,18,15,49,10.30
2012,04,18,15,50,10.30
2012,04,18,15,51,10.20
2012,04,18,15,52,10.20
2012,04,18,15,53,10.20
2012,04,18,15,54,10.10
2012,04,18,15,55,10.20
2012,04,18,15,56,10.20
2012,04,18,15,57,10.30
2012,04,18,15,58,10.30
2012,04,18,15,59,10.40
2012,04,18,16,00,10.40
2012,04,18,16,01,10.40
2012,04,18,16,02,10.40
2012,04,18,16,03,10.30
2012,04,18,16,04,10.30
2012,04,18,16,05,10.30
2012,04,18,16,06,10.30
2012,04,18,16,07,10.30
2012,04,18,16,08,10.30
2012,04,18,16,09,10.30
2012,04,18,16,10,10.30
2012,04,18,16,11,10.20
2012,04,18,16,12,10.20
2012,04,18,16,13,10.20
2012,04,18,16,14,10.20
2012,04,18,16,15,10.20
2012,04,18,16,16,10.20
2012,04,18,16,17,10.20
2012,04,18,16,18,10.10
2012,04,18,16,19,10.10
2012,04,18,16,20,10.10
2012,04,18,16,21,10.10
2012,04,18,16,22,10.20
2012,04,18,16,23,10.20
2012,04,18,16,24,10.20
2012,04,18,16,25,10.10
2012,04,18,16,26,10.10
2012,04,18,16,27,10.00
2012,04,18,16,28,9.90
2012,04,18,16,29,9.90
2012,04,18,16,30,9.90
2012,04,18,16,31,9.90
2012,04,18,16,32,9.90
2012,04,18,16,33,9.90
2012,04,18,16,34,10.00
2012,04,18,16,35,10.00
2012,04,18,16,36,10.10
2012,04,18,16,37,10.20
2012,04,18,16,38,10.20
2012,04,18,16,39,10.30
2012,04,18,16,40,10.30
2012,04,18,16,41,10.30
2012,04,18,16,42,10.20
2012,04,18,16,43,10.20
2012,04,18,16,44,10.20
2012,04,18,16,45,10.20
2012,04,18,16,46,10.10
2012,04,18,16,47,10.00
2012,04,18,16,48,9.90
2012,04,18,16,49,9.90
2012,04,18,16,50,9.90
2012,04,18,16,51,9.90
2012,04,18,16,52,9.90
2012,04,18,16,53,9.90
2012,04,18,16,54,9.90
2012,04,18,16,55,10.00
2012,04,18,16,56,9.90
2012,04,18,16,57,9.90
2012,04,18,16,58,9.80
2012,04,18,16,59,9.80
2012,04,18,17,00,9.80
2012,04,18,17,01,9.80
2012,04,18,17,02,9.90
2012,04,18,17,03,9.90
2012,04,18,17,04,9.80
2012,04,18,17,05,9.80
2012,04,18,17,06,9.70
2012,04,18,17,07,9.70
2012,04,18,17,08,9.70
2012,04,18,17,09,9.80
2012,04,18,17,10,9.90
2012,04,18,17,11,10.00
2012,04,18,17,12,10.10
2012,04,18,17,13,10.20
2012,04,18,17,14,10.10
2012,04,18,17,15,10.00
2012,04,18,17,16,9.90
2012,04,18,17,17,9.90
2012,04,18,17,18,9.80
2012,04,18,17,19,9.90
2012,04,18,17,20,9.90
2012,04,18,17,21,9.80
2012,04,18,17,22,9.80
2012,04,18,17,23,9.80
2012,04,18,17,24,9.80
2012,04,18,17,25,9.80
2012,04,18,17,26,9.70
2012,04,18,17,27,9.60
2012,04,18,17,28,9.50
2012,04,18,17,29,9.50
2012,04,18,17,30,9.40
2012,04,18,17,31,9.50
2012,04,18,17,32,9.50
2012,04,18,17,33,9.50
2012,04,18,17,34,9.60
2012,04,18,17,35,9.60
2012,04,18,17,36,9.70
2012,04,18,17,37,9.70
2012,04,18,17,38,9.80
2012,04,18,17,39,9.90
2012,04,18,17,40,9.90
2012,04,18,17,41,9.90
2012,04,18,17,42,9.90
2012,04,18,17,43,9.90
2012,04,18,17,44,9.80
2012,04,18,17,45,9.80
2012,04,18,17,46,9.80
2012,04,18,17,47,9.70
2012,04,18,17,48,9.80
2012,04,18,17,49,9.80
2012,04,18,17,50,9.80
2012,04,18,17,51,9.80
2012,04,18,17,52,9.80
2012,04,18,17,53,9.70
2012,04,18,17,54,9.60
2012,04,18,17,55,9.60
2012,04,18,17,56,9.60
2012,04,18,17,57,9.60
2012,04,18,17,58,9.70
2012,04,18,17,59,9.70
2012,04,18,18,00,9.80
2012,04,18,18,01,9.80
2012,04,18,18,02,9.80
2012,04,18,18,03,9.80
2012,04,18,18,04,9.80
2012,04,18,18,05,9.80
2012,04,18,18,06,9.80
2012,04,18,18,07,9.80
2012,04,18,18,08,9.70
2012,04,18,18,09,9.60
2012,04,18,18,10,9.60
2012,04,18,18,11,9.50
2012,04,18,18,12,9.50
2012,04,18,18,13,9.50
2012,04,18,18,14,9.50
2012,04,18,18,15,9.50
2012,04,18,18,16,9.50
2012,04,18,18,17,9.60
2012,04,18,18,18,9.60
2012,04,18,18,19,9.60
2012,04,18,18,20,9.60
2012,04,18,18,21,9.60
2012,04,18,18,22,9.60
2012,04,18,18,23,9.60
2012,04,18,18,24,9.60
2012,04,18,18,25,9.60
2012,04,18,18,26,9.50
2012,04,18,18,27,9.40
2012,04,18,18,28,9.40
2012,04,18,18,29,9.40
2012,04,18,18,30,9.40
2012,04,18,18,31,9.40
2012,04,18,18,32,9.40
2012,04,18,18,33,9.40
2012,04,18,18,34,9.50
2012,04,18,18,35,9.50
2012,04,18,18,36,9.50
2012,04,18,18,37,9.50
2012,04,18,18,38,9.50
2012,04,18,18,39,9.50
2012,04,18,18,40,9.50
2012,04,18,18,41,9.50
2012,04,18,18,42,9.50
2012,04,18,18,43,9.40
2012,04,18,18,44,9.40
2012,04,18,18,45,9.40
2012,04,18,18,46,9.40
2012,04,18,18,47,9.40
2012,04,18,18,48,9.50
2012,04,18,18,49,9.50
2012,04,18,18,50,9.50
2012,04,18,18,51,9.50
2012,04,18,18,52,9.50
2012,04,18,18,53,9.40
2012,04,18,18,54,9.50
2012,04,18,18,55,9.50
2012,04,18,18,56,9.40
2012,04,18,18,57,9.40
2012,04,18,18,58,9.40
2012,04,18,18,59,9.40
2012,04,18,19,00,9.40
2012,04,18,19,01,9.30
2012,04,18,19,02,9.30
2012,04,18,19,03,9.30
2012,04,18,19,04,9.30
2012,04,18,19,05,9.30
2012,04,18,19,06,9.30
2012,04,18,19,07,9.30
2012,04,18,19,08,9.20
2012,04,18,19,09,9.10
2012,04,18,19,10,9.10
2012,04,18,19,11,9.10
2012,04,18,19,12,9.00
2012,04,18,19,13,9.00
2012,04,18,19,14,8.90
2012,04,18,19,15,8.90
2012,04,18,19,16,8.90
2012,04,18,19,17,8.80
2012,04,18,19,18,8.80
2012,04,18,19,19,8.80
2012,04,18,19,20,8.70
2012,04,18,19,21,8.70
2012,04,18,19,22,8.70
2012,04,18,19,23,8.70
2012,04,18,19,24,8.60
2012,04,18,19,25,8.60
2012,04,18,19,26,8.60
2012,04,18,19,27,8.60
2012,04,18,19,28,8.60
2012,04,18,19,29,8.50
2012,04,18,19,30,8.50
2012,04,18,19,31,8.50
2012,04,18,19,32,8.40
2012,04,18,19,33,8.40
2012,04,18,19,34,8.40
2012,04,18,19,35,8.30
2012,04,18,19,36,8.30
2012,04,18,19,37,8.30
2012,04,18,19,38,8.30
2012,04,18,19,39,8.30
2012,04,18,19,40,8.20
2012,04,18,19,41,8.20
2012,04,18,19,42,8.20
2012,04,18,19,43,8.20
2012,04,18,19,44,8.20
2012,04,18,19,45,8.20
2012,04,18,19,46,8.20
2012,04,18,19,47,8.20
2012,04,18,19,48,8.20
2012,04,18,19,49,8.20
2012,04,18,19,50,8.10
2012,04,18,19,51,8.10
2012,04,18,19,52,8.10
2012,04,18,19,53,8.10
2012,04,18,19,54,8.10
2012,04,18,19,55,8.10
2012,04,18,19,56,8.10
2012,04,18,19,57,8.10
2012,04,18,19,58,8.00
2012,04,18,19,59,8.00
2012,04,18,20,00,8.00
2012,04,18,20,01,8.00
2012,04,18,20,02,7.90
2012,04,18,20,03,7.90
2012,04,18,20,04,7.90
2012,04,18,20,05,7.90
2012,04,18,20,06,7.90
2012,04,18,20,07,7.90
2012,04,18,20,08,7.90
2012,04,18,20,09,7.90
2012,04,18,20,10,7.90
2012,04,18,20,11,7.90
2012,04,18,20,12,7.90
2012,04,18,20,13,7.90
2012,04,18,20,14,7.90
2012,04,18,20,15,7.90
2012,04,18,20,16,7.90
2012,04,18,20,17,7.90
2012,04,18,20,18,7.90
2012,04,18,20,19,7.90
2012,04,18,20,20,7.90
2012,04,18,20,21,7.90
2012,04,18,20,22,7.90
2012,04,18,20,23,7.90
2012,04,18,20,24,7.90
2012,04,18,20,25,7.90
2012,04,18,20,26,7.90
2012,04,18,20,27,7.90
2012,04,18,20,28,7.90
2012,04,18,20,29,7.90
2012,04,18,20,30,7.90
2012,04,18,20,31,7.90
2012,04,18,20,32,7.80
2012,04,18,20,33,7.80
2012,04,18,20,34,7.80
2012,04,18,20,35,7.80
2012,04,18,20,36,7.80
2012,04,18,20,37,7.80
2012,04,18,20,38,7.80
2012,04,18,20,39,7.80
2012,04,18,20,40,7.80
2012,04,18,20,41,7.80
2012,04,18,20,42,7.80
2012,04,18,20,43,7.80
2012,04,18,20,44,7.80
2012,04,18,20,45,7.80
2012,04,18,20,46,7.80
2012,04,18,20,47,7.70
2012,04,18,20,48,7.70
2012,04,18,20,49,7.70
2012,04,18,20,50,7.70
2012,04,18,20,51,7.70
2012,04,18,20,52,7.60
2012,04,18,20,53,7.60
2012,04,18,20,54,7.50
2012,04,18,20,55,7.50
2012,04,18,20,56,7.40
2012,04,18,20,57,7.40
2012,04,18,20,58,7.30
2012,04,18,20,59,7.30
2012,04,18,21,00,7.30
2012,04,18,21,01,7.20
2012,04,18,21,02,7.20
2012,04,18,21,03,7.20
2012,04,18,21,04,7.20
2012,04,18,21,05,7.20
2012,04,18,21,06,7.20
2012,04,18,21,07,7.20
2012,04,18,21,08,7.20
2012,04,18,21,09,7.20
2012,04,18,21,10,7.20
2012,04,18,21,11,7.20
2012,04,18,21,12,7.20
2012,04,18,21,15,7.10
2012,04,18,21,16,7.10
2012,04,18,21,17,7.00
2012,04,18,21,18,7.00
2012,04,18,21,19,6.90
2012,04,18,21,20,6.90
2012,04,18,21,21,6.90
2012,04,18,21,22,6.90
2012,04,18,21,23,6.80
2012,04,18,21,24,6.80
2012,04,18,21,25,6.80
2012,04,18,21,26,6.80
2012,04,18,21,27,6.80
2012,04,18,21,28,6.80
2012,04,18,21,29,6.80
2012,04,18,21,30,6.80
2012,04,18,21,31,6.80
2012,04,18,21,32,6.80
2012,04,18,21,33,6.80
2012,04,18,21,34,6.80
2012,04,18,21,35,6.70
2012,04,18,21,36,6.70
2012,04,18,21,37,6.70
2012,04,18,21,38,6.70
2012,04,18,21,39,6.70
2012,04,18,21,40,6.70
2012,04,18,21,41,6.70
2012,04,18,21,42,6.60
2012,04,18,21,43,6.60
2012,04,18,21,44,6.60
2012,04,18,21,45,6.60
2012,04,18,21,46,6.60
2012,04,18,21,47,6.70
2012,04,18,21,48,6.70
2012,04,18,21,49,6.70
2012,04,18,21,50,6.70
2012,04,18,21,51,6.70
2012,04,18,21,52,6.60
2012,04,18,21,53,6.60
2012,04,18,21,54,6.60
2012,04,18,21,55,6.60
2012,04,18,21,56,6.60
2012,04,18,21,57,6.60
2012,04,18,21,58,6.60
2012,04,18,21,59,6.70
2012,04,18,22,00,6.70
2012,04,18,22,01,6.70
2012,04,18,22,02,6.70
2012,04,18,22,03,6.70
2012,04,18,22,04,6.70
2012,04,18,22,05,6.70
2012,04,18,22,06,6.70
2012,04,18,22,07,6.70
2012,04,18,22,08,6.60
2012,04,18,22,09,6.60
2012,04,18,22,10,6.60
2012,04,18,22,11,6.60
2012,04,18,22,12,6.60
2012,04,18,22,13,6.60
2012,04,18,22,14,6.60
2012,04,18,22,15,6.60
2012,04,18,22,16,6.60
2012,04,18,22,17,6.60
2012,04,18,22,18,6.60
2012,04,18,22,19,6.60
2012,04,18,22,20,6.60
2012,04,18,22,21,6.60
2012,04,18,22,22,6.50
2012,04,18,22,23,6.50
2012,04,18,22,24,6.50
2012,04,18,22,25,6.50
2012,04,18,22,26,6.40
2012,04,18,22,27,6.40
2012,04,18,22,28,6.40
2012,04,18,22,29,6.40
2012,04,18,22,30,6.40
2012,04,18,22,31,6.40
2012,04,18,22,32,6.40
2012,04,18,22,33,6.40
2012,04,18,22,34,6.30
2012,04,18,22,35,6.30
2012,04,18,22,36,6.30
2012,04,18,22,37,6.30
2012,04,18,22,38,6.30
2012,04,18,22,39,6.30
2012,04,18,22,40,6.30
2012,04,18,22,41,6.30
2012,04,18,22,42,6.30
2012,04,18,22,43,6.30
2012,04,18,22,44,6.20
2012,04,18,22,45,6.20
2012,04,18,22,46,6.20
2012,04,18,22,47,6.20
2012,04,18,22,48,6.20
2012,04,18,22,49,6.20
2012,04,18,22,50,6.20
2012,04,18,22,51,6.20
2012,04,18,22,52,6.20
2012,04,18,22,53,6.20
2012,04,18,22,54,6.20
2012,04,18,22,55,6.10
2012,04,18,22,56,6.10
2012,04,18,22,57,6.10
2012,04,18,22,58,6.10
2012,04,18,22,59,6.10
2012,04,18,23,00,6.10
2012,04,18,23,01,6.10
2012,04,18,23,02,6.10
2012,04,18,23,03,6.10
2012,04,18,23,04,6.10
2012,04,18,23,05,6.10
2012,04,18,23,06,6.10
2012,04,18,23,07,6.10
2012,04,18,23,08,6.10
2012,04,18,23,09,6.20
2012,04,18,23,10,6.20
2012,04,18,23,11,6.20
2012,04,18,23,12,6.20
2012,04,18,23,13,6.20
2012,04,18,23,14,6.20
2012,04,18,23,15,6.30
2012,04,18,23,16,6.30
2012,04,18,23,17,6.30
2012,04,18,23,18,6.30
2012,04,18,23,19,6.30
2012,04,18,23,20,6.30
2012,04,18,23,21,6.30
2012,04,18,23,22,6.30
2012,04,18,23,23,6.30
2012,04,18,23,24,6.30
2012,04,18,23,25,6.30
2012,04,18,23,26,6.30
2012,04,18,23,27,6.30
2012,04,18,23,28,6.40
2012,04,18,23,29,6.40
2012,04,18,23,30,6.40
2012,04,18,23,31,6.40
2012,04,18,23,32,6.40
2012,04,18,23,33,6.40
2012,04,18,23,34,6.40
2012,04,18,23,35,6.40
2012,04,18,23,36,6.40
2012,04,18,23,37,6.40
2012,04,18,23,38,6.40
2012,04,18,23,39,6.50
2012,04,18,23,40,6.50
2012,04,18,23,41,6.50
2012,04,18,23,42,6.50
2012,04,18,23,43,6.60
2012,04,18,23,44,6.60
2012,04,18,23,45,6.60
2012,04,18,23,46,6.60
2012,04,18,23,47,6.60
2012,04,18,23,48,6.60
2012,04,18,23,49,6.70
2012,04,18,23,50,6.70
2012,04,18,23,51,6.70
2012,04,18,23,52,6.70
2012,04,18,23,53,6.70
2012,04,18,23,54,6.70
2012,04,18,23,55,6.70
2012,04,18,23,56,6.70
2012,04,18,23,57,6.70
2012,04,18,23,58,6.70
2012,04,18,23,59,6.70
